User: anonymous   Login
Location: Cape Cod Imaging Station
(41.7417°N, 70.1583°W)
Time: 19:07:17
(UTC-05:00)
Language:

Cosmos 1508 Rocket - Orbit

View from above orbital plane
View from above orbital plane
View from above satellite
View from above satellite

Ground track
Ground track

The orbit data is extracted from the following two-line orbital elements,

1 14484U 83111B   14325.19310811  .00072090  00000-0  83278-3 0  7069
2 14484 082.8340 176.0959 0176960 067.1720 071.4080 15.44869624596679
Epoch (UTC): 21 November 2014 04:38:04
Eccentricity: 0.0176960
inclination: 82.8340°
perigee height: 311 km
apogee height: 552 km
right ascension of ascending node: 176.0959°
argument of perigee: 67.1720°
revolutions per day: 15.44869624
mean anomaly at epoch: 71.4080°
orbit number at epoch: 59667

The dashed part of the orbit path shows where the satellite is in the earth's shadow,  

DLR